When you browse on this site, cookies collect data to enhance your experience and personalize the content and advertising you see.
Visit our Privacy Policy to learn more. By continuing to use the site, you agree to this use of cookies and data.
  • Em Portugal
  • Lista de países
  • Para 7 dias
  • Temperatura da água
  • Mapas de satélite
  • Mapa do tempo
  • Widgets de tempo
  • user-avatar
    Iniciar Sessão

    Previsão horária em Mylohovo

    Hoje, 16 Fevereiro, Sábado

    Tempo Temperatura Precipitação Vento Pressão Humidade
    00:00 -1°C° 0 mm 4 m/s 739 mmHg 95%
    01:00 -1°C° 0 mm 4 m/s 739 mmHg 96%
    02:00 -1°C° 0 mm 4 m/s 739 mmHg 97%
    03:00 -1°C° 0 mm 4 m/s 739 mmHg 97%
    04:00 0°C° 0 mm 3 m/s 739 mmHg 97%
    05:00 -1°C° 0 mm 3 m/s 739 mmHg 97%
    06:00 -1°C° 0.1 mm 3 m/s 739 mmHg 97%
    07:00 -1°C° 0.1 mm 3 m/s 739 mmHg 97%
    08:00 -1°C° 0.1 mm 3 m/s 739 mmHg 97%
    09:00 0°C° 0 mm 3 m/s 738 mmHg 96%
    10:00 0°C° 0 mm 3 m/s 738 mmHg 95%
    11:00 0°C° 0 mm 3 m/s 738 mmHg 94%
    12:00 +1°C° 0 mm 3 m/s 737 mmHg 92%
    13:00 0°C° 0 mm 4 m/s 737 mmHg 90%
    14:00 +1°C° 0 mm 4 m/s 737 mmHg 89%
    15:00 0°C° 0 mm 4 m/s 736 mmHg 87%
    16:00 0°C° 0 mm 4 m/s 736 mmHg 86%
    17:00 -1°C° 0 mm 4 m/s 735 mmHg 85%
    18:00 -1°C° 0 mm 4 m/s 735 mmHg 84%
    19:00 -1°C° 0 mm 4 m/s 734 mmHg 84%
    20:00 -1°C° 0 mm 4 m/s 734 mmHg 83%
    21:00 -1°C° 0 mm 4 m/s 733 mmHg 84%
    22:00 -1°C° 0 mm 4 m/s 733 mmHg 85%
    23:00 -1°C° 0 mm 4 m/s 732 mmHg 86%

    Amanhã, 17 Fevereiro, Domingo

    Tempo Temperatura Precipitação Vento Pressão Humidade
    00:00 -1°C° 0 mm 4 m/s 732 mmHg 86%
    01:00 -1°C° 0 mm 4 m/s 732 mmHg 87%
    02:00 -1°C° 0 mm 4 m/s 732 mmHg 87%
    03:00 -1°C° 0 mm 5 m/s 731 mmHg 88%
    04:00 -1°C° 0 mm 5 m/s 731 mmHg 89%
    05:00 -1°C° 0 mm 5 m/s 731 mmHg 90%
    06:00 -2°C° 0 mm 5 m/s 731 mmHg 89%
    07:00 -2°C° 0 mm 5 m/s 732 mmHg 88%
    08:00 -2°C° 0 mm 4 m/s 732 mmHg 88%
    09:00 -2°C° 0 mm 5 m/s 732 mmHg 84%
    10:00 -2°C° 0 mm 5 m/s 732 mmHg 80%
    11:00 -2°C° 0 mm 5 m/s 732 mmHg 76%
    12:00 -3°C° 0 mm 6 m/s 732 mmHg 74%
    13:00 -3°C° 0 mm 6 m/s 733 mmHg 72%
    14:00 -3°C° 0 mm 6 m/s 733 mmHg 70%
    15:00 -3°C° 0 mm 6 m/s 733 mmHg 71%
    16:00 -4°C° 0 mm 6 m/s 734 mmHg 72%
    17:00 -4°C° 0 mm 5 m/s 734 mmHg 73%
    18:00 -5°C° 0 mm 5 m/s 735 mmHg 73%
    19:00 -5°C° 0 mm 5 m/s 735 mmHg 73%
    20:00 -5°C° 0 mm 5 m/s 736 mmHg 73%
    21:00 -6°C° 0 mm 5 m/s 737 mmHg 75%
    22:00 -6°C° 0 mm 5 m/s 737 mmHg 76%
    23:00 -7°C° 0 mm 4 m/s 738 mmHg 77%

    Depois de amanhã, 18 Fevereiro, Segunda-feira

    Tempo Temperatura Precipitação Vento Pressão Humidade
    00:00 -7°C° 0 mm 4 m/s 738 mmHg 78%
    01:00 -7°C° 0 mm 4 m/s 739 mmHg 79%
    02:00 -7°C° 0 mm 4 m/s 739 mmHg 80%
    03:00 -8°C° 0 mm 4 m/s 740 mmHg 81%
    04:00 -7°C° 0 mm 3 m/s 740 mmHg 81%
    05:00 -7°C° 0 mm 3 m/s 741 mmHg 82%
    06:00 -7°C° 0 mm 3 m/s 741 mmHg 83%
    07:00 -7°C° 0 mm 3 m/s 742 mmHg 84%
    08:00 -8°C° 0 mm 3 m/s 742 mmHg 85%
    09:00 -6°C° 0 mm 2 m/s 743 mmHg 81%
    10:00 -6°C° 0 mm 2 m/s 743 mmHg 78%
    11:00 -5°C° 0 mm 2 m/s 744 mmHg 75%
    12:00 -5°C° 0 mm 2 m/s 744 mmHg 72%
    13:00 -2°C° 0 mm 1 m/s 744 mmHg 68%
    14:00 -2°C° 0 mm 1 m/s 744 mmHg 65%
    15:00 -2°C° 0 mm 1 m/s 744 mmHg 70%
    16:00 -3°C° 0 mm 1 m/s 744 mmHg 74%
    17:00 -3°C° 0 mm 1 m/s 744 mmHg 78%
    18:00 -6°C° 0 mm 2 m/s 744 mmHg 78%
    19:00 -6°C° 0 mm 2 m/s 743 mmHg 77%
    20:00 -6°C° 0 mm 2 m/s 743 mmHg 77%
    21:00 -6°C° 0 mm 3 m/s 743 mmHg 75%
    22:00 -6°C° 0 mm 3 m/s 743 mmHg 73%
    23:00 -7°C° 0 mm 4 m/s 742 mmHg 71%

    19 Fevereiro, Terça-feira

    Tempo Temperatura Precipitação Vento Pressão Humidade
    00:00 -5°C° 0 mm 4 m/s 742 mmHg 68%
    01:00 -6°C° 0 mm 5 m/s 741 mmHg 66%
    02:00 -5°C° 0 mm 5 m/s 741 mmHg 63%
    03:00 -5°C° 0 mm 5 m/s 740 mmHg 65%
    04:00 -5°C° 0 mm 5 m/s 740 mmHg 67%
    05:00 -5°C° 0 mm 5 m/s 739 mmHg 68%
    06:00 -5°C° 0 mm 5 m/s 739 mmHg 71%
    07:00 -5°C° 0 mm 5 m/s 738 mmHg 74%
    08:00 -5°C° 0 mm 5 m/s 738 mmHg 77%
    09:00 -4°C° 0 mm 5 m/s 738 mmHg 76%
    10:00 -3°C° 0 mm 6 m/s 737 mmHg 76%
    11:00 -2°C° 0 mm 6 m/s 737 mmHg 76%
    12:00 -2°C° 0 mm 6 m/s 736 mmHg 75%
    13:00 -1°C° 0 mm 6 m/s 736 mmHg 75%
    14:00 -1°C° 0 mm 6 m/s 735 mmHg 74%
    15:00 0°C° 0 mm 5 m/s 735 mmHg 76%
    16:00 -1°C° 0 mm 5 m/s 734 mmHg 78%
    17:00 -1°C° 0 mm 5 m/s 734 mmHg 80%
    18:00 -2°C° 0 mm 5 m/s 733 mmHg 82%
    19:00 -2°C° 0 mm 5 m/s 733 mmHg 83%
    20:00 -2°C° 0 mm 5 m/s 732 mmHg 85%
    21:00 -2°C° 0 mm 5 m/s 732 mmHg 86%
    22:00 -2°C° 0 mm 5 m/s 731 mmHg 87%
    23:00 -2°C° 0 mm 5 m/s 731 mmHg 88%

    20 Fevereiro, Quarta-feira

    Tempo Temperatura Precipitação Vento Pressão Humidade
    00:00 -2°C° 0.1 mm 5 m/s 730 mmHg 89%
    01:00 -2°C° 0.1 mm 4 m/s 729 mmHg 90%
    02:00 -1°C° 0.1 mm 4 m/s 729 mmHg 91%
    03:00 -1°C° 1.1 mm 4 m/s 728 mmHg 91%
    04:00 -1°C° 1.1 mm 4 m/s 727 mmHg 91%
    05:00 -1°C° 1.1 mm 4 m/s 727 mmHg 92%
    06:00 -1°C° 0.7 mm 4 m/s 726 mmHg 93%
    07:00 -1°C° 0.7 mm 4 m/s 726 mmHg 94%
    08:00 -1°C° 0.7 mm 4 m/s 726 mmHg 94%
    09:00 -1°C° 0.3 mm 4 m/s 726 mmHg 93%
    10:00 -1°C° 0.3 mm 4 m/s 726 mmHg 92%
    11:00 -1°C° 0.3 mm 4 m/s 726 mmHg 91%
    12:00 -1°C° 0.5 mm 4 m/s 726 mmHg 90%
    13:00 0°C° 0.5 mm 4 m/s 725 mmHg 89%
    14:00 0°C° 0.5 mm 4 m/s 725 mmHg 88%
    15:00 0°C° 0.6 mm 5 m/s 725 mmHg 87%
    16:00 -1°C° 0.6 mm 5 m/s 725 mmHg 86%
    17:00 -2°C° 0.6 mm 6 m/s 725 mmHg 84%
    18:00 -2°C° 0.2 mm 6 m/s 725 mmHg 84%
    19:00 -3°C° 0.2 mm 6 m/s 725 mmHg 84%
    20:00 -2°C° 0.2 mm 5 m/s 725 mmHg 84%
    21:00 -2°C° 0.4 mm 5 m/s 725 mmHg 85%
    22:00 -4°C° 0.4 mm 5 m/s 725 mmHg 87%
    23:00 -4°C° 0.4 mm 5 m/s 726 mmHg 89%

    21 Fevereiro, Quinta-feira

    Tempo Temperatura Precipitação Vento Pressão Humidade
    00:00 -4°C° 0.4 mm 6 m/s 726 mmHg 88%
    01:00 -3°C° 0.4 mm 6 m/s 727 mmHg 88%
    02:00 -3°C° 0.4 mm 6 m/s 727 mmHg 87%
    03:00 -3°C° 0.2 mm 6 m/s 728 mmHg 87%
    04:00 -4°C° 0.2 mm 5 m/s 728 mmHg 86%
    05:00 -4°C° 0.2 mm 5 m/s 729 mmHg 85%
    06:00 -5°C° 0.1 mm 5 m/s 730 mmHg 83%
    07:00 -6°C° 0.1 mm 5 m/s 730 mmHg 81%
    08:00 -7°C° 0.1 mm 5 m/s 731 mmHg 79%
    09:00 -8°C° 0.1 mm 6 m/s 731 mmHg 77%
    10:00 -8°C° 0.1 mm 6 m/s 732 mmHg 76%
    11:00 -8°C° 0.1 mm 6 m/s 732 mmHg 74%
    12:00 -8°C° 0.1 mm 6 m/s 733 mmHg 74%
    13:00 -8°C° 0.1 mm 6 m/s 733 mmHg 74%
    14:00 -8°C° 0.1 mm 6 m/s 734 mmHg 75%
    15:00 -8°C° 0.1 mm 6 m/s 735 mmHg 73%
    16:00 -9°C° 0.1 mm 6 m/s 735 mmHg 72%
    17:00 -9°C° 0.1 mm 6 m/s 736 mmHg 70%
    18:00 -10°C° 0 mm 5 m/s 737 mmHg 71%
    19:00 -11°C° 0 mm 5 m/s 738 mmHg 72%
    20:00 -11°C° 0 mm 4 m/s 738 mmHg 73%
    21:00 -11°C° 0 mm 4 m/s 739 mmHg 74%
    22:00 -11°C° 0 mm 4 m/s 740 mmHg 75%
    23:00 -11°C° 0 mm 4 m/s 740 mmHg 76%
    Mostrar mais